Погода в Казахе

Азербайджан     41°05′20″N   45°20′48″E
темп.,
°C
ветер,
м/с
пор.,
м/с
влажн.,
%
обл.,
%
осадки,
мм/ч
давл.,
гПа
погр.,
м
22 октября, пт
пт2201:00+5юз11820 0.0 103010
04:00+5юз11810 0.0 102910
07:00+4юз22730 0.0 102811
10:00+10ссв21530 0.0 1026268
13:00+13св31490 0.0 1024523
16:00+14св21480 0.0 1022521
19:00+10ююз22650 0.0 102310
22:00+9юз22660 0.0 102310
23 октября, сб
сб2301:00+8юз21670 0.0 102310
04:00+8юз22640 0.0 102212
07:00+7юз32560 0.0 102216
10:00+13ссв10450 0.0 1021249
13:00+15св31450 0.0 1019559
16:00+16св21440 0.0 1018532
19:00+11юз22590 0.0 101912
22:00+11юз33580 0.0 101918
24 октября, вс
вс2401:00+10юз33520 0.0 101922
04:00+9юз33480 0.0 101928
07:00+8юз44460 0.0 101932
10:00+14ссв11370 0.0 1018264
13:00+16св31385 0.0 1017630
16:00+16св22368 0.0 1016655
19:00+12ююз224425 0.0 101817
22:00+11юз33431 0.0 101823
25 октября, пн
пн2501:00+9юз334366 0.0 101820
04:00+9юз3345100 0.0 101718
07:00+7ююз324912 0.0 101821
10:00+12с2139100 0.0 1017321
13:00+12ссв3246100 0.0 1017598
16:00+10св4364100 0.0 1018516
19:00+6в128076 0.0 102279
22:00+5вюв118215 0.0 102437
26 октября, вт
вт2601:00+4ююз11855 0.0 102513
04:00+4юз018331 0.0 102624
07:00+3зюз22764 0.0 102712
10:00+7с22584 0.0 1028589
13:00+9св424822 0.0 10271214
16:00+9св22455 0.0 10261145
19:00+5в22613 0.0 102932
22:00+4юз01773 0.0 103110